Tracking 18840 objects as of 18-November-2017
HD Live streaming from Space Station
objects crossing your sky now

MOZHAYETS

Track MOZHAYETS now!
10-day predictions
MOZHAYETS is classified as:


NORAD ID: 27560
Int'l Code: 2002-054B
Perigee: 679.0 km
Apogee: 736.8 km
Inclination: 98.2 °
Period: 98.8 minutes
Semi major axis: 7078 km
RCS: 1.03 m2 (large)
Launch date: November 28, 2002
Source: Commonwealth of Independent States (former USSR) (CIS)
Launch site: PLESETSK MISSILE AND SPACE COMPLEX (PKMTR)
aabbcc
Your satellite tracking list
Your tracking list is empty




NASA's NSSDC Master Catalog

Two Line Element Set (TLE):
1 27560U 02054B   17322.20909902  .00000087  00000-0  29176-4 0  9991
2 27560  98.2296  94.7426 0040813 355.3814 123.7340 14.57663406794434
Source of the keplerian elements: AFSPC